Tracking 19247 objects as of 26-Sep-2018
HD Live streaming from Space Station
objects crossing your sky now

FENGYUN 1C DEB

Track FENGYUN 1C DEB now!
10-day predictions


NORAD ID: 31038
Int'l Code: 1999-025BEG
Perigee: 703.4 km
Apogee: 841.3 km
Inclination: 99.0 °
Period: 100.1 minutes
Semi major axis: 7143 km
RCS: 0.0091 m2 (small)
Launch date: May 10, 1999
Source: People's Republic of China (PRC)
Launch site: Taiyaun Space Center, China (TSC)

Note: This is SATELLITE DEBRIS
aabbcc
Your satellite tracking list
Your tracking list is empty




NASA's NSSDC Master Catalog

Two Line Element Set (TLE):
1 31038U 99025BEG 18267.94169095 +.00000228 +00000-0 +87056-4 0  9999
2 31038 099.0126 164.6371 0096460 075.6389 285.5481 14.37972194602980
Source of the keplerian elements: AFSPC